Helsinki, Finland

2:09 PM EEST on September 30, 2016 (GMT +0300)
Vantaa

Weather History for EFHK - December, 2013

Change the Weather History Date:

Thursday, December 12, 2013

  Actual Average Record
Temperature  
Mean Temperature 38 °F -  
Max Temperature 42 °F 33 °F 44 °F (2000)
Min Temperature 34 °F 25 °F 5 °F (2010)
Degree Days  
Heating Degree Days 27    
Moisture  
Dew Point 37 °F    
Average Humidity 95    
Maximum Humidity 100    
Minimum Humidity 70    
Precipitation  
Precipitation 0.01 in - - ()
Sea Level Pressure  
Sea Level Pressure 29.76 in    
Wind  
Wind Speed 11 mph ()    
Max Wind Speed 25 mph    
Max Gust Speed 34 mph    
Visibility 2.9 miles    
Events Fog , Rain    
Averages and records for this station are not official NWS values.
T = Trace of Precipitation, MM = Missing Value Source: Averaged Metar Reports

Daily Weather History Graph

Daily Weather History Graph

Search for Another Location

Airport or City:

Trip Planner

Search our weather history database for the weather conditions in past years. The results will help you decide how hot, cold, wet, or windy it might be!

Date:

Astronomy

Dec. 12, 2013 Rise Set
Actual Time 9:16 AM EET 3:10 PM EET
Civil Twilight 8:18 AM EET 4:08 PM EET
Nautical Twilight 7:21 AM EET 5:06 PM EET
Astronomical Twilight 6:29 AM EET 5:57 PM EET
Moon 1:09 PM EET (12/12) 3:11 AM EET (12/12)
Length of Visible Light 7h 50m
Length of Day
5h 54m
Waxing Gibbous, 78% of the Moon is Illuminated
Dec 12
Waxing Gibbous
Dec 17
Full
Dec 25
Last Quarter
Jan 1
New
Jan 8
First Quarter

Hourly Weather History & Observations

Time (EET) Temp. Windchill Dew Point Humidity Pressure Visibility Wind Dir Wind Speed Gust Speed Precip Events Conditions
12:20 AM 35.6 °F 28.6 °F 35.6 °F 100% 29.98 in 2.5 mi WSW 9.2 mph - N/A   Overcast
12:50 AM 35.6 °F 28.6 °F 35.6 °F 100% 29.98 in 2.8 mi WSW 9.2 mph - N/A   Overcast
1:20 AM 35.6 °F 29.2 °F 35.6 °F 100% 29.98 in 2.5 mi WSW 8.1 mph - N/A   Overcast
1:50 AM 35.6 °F 27.1 °F 35.6 °F 100% 29.98 in 3.7 mi West 12.7 mph - N/A   Overcast
2:00 AM 35 °F - 35 °F 99% 30.00 in 5 mi West 13.4 mph - -   Mist
2:20 AM 35.6 °F 28.0 °F 35.6 °F 100% 29.98 in 4.3 mi WSW 10.4 mph - N/A   Overcast
2:50 AM 35.6 °F 28.0 °F 35.6 °F 100% 29.98 in 3.7 mi WSW 10.4 mph - N/A   Overcast
3:20 AM 35.6 °F 28.6 °F 35.6 °F 100% 29.98 in 2.8 mi West 9.2 mph - N/A   Overcast
3:50 AM 35.6 °F 29.2 °F 35.6 °F 100% 29.98 in 2.2 mi WSW 8.1 mph - N/A   Overcast
4:20 AM 35.6 °F 29.2 °F 35.6 °F 100% 29.95 in 1.1 mi WSW 8.1 mph - N/A   Overcast
4:50 AM 35.6 °F 29.9 °F 35.6 °F 100% 29.98 in 0.9 mi WSW 6.9 mph - N/A   Overcast
5:20 AM 35.6 °F 29.2 °F 35.6 °F 100% 29.95 in 0.6 mi SW 8.1 mph - N/A Fog Fog
5:50 AM 35.6 °F 29.9 °F 35.6 °F 100% 29.95 in 0.6 mi SW 6.9 mph - N/A Fog Fog
6:20 AM 35.6 °F 28.6 °F 35.6 °F 100% 29.95 in 0.5 mi SW 9.2 mph - N/A Fog Fog
6:50 AM 35.6 °F 29.2 °F 35.6 °F 100% 29.95 in 0.6 mi WSW 8.1 mph - N/A Fog Fog
7:20 AM 35.6 °F 29.2 °F 35.6 °F 100% 29.95 in 0.6 mi SW 8.1 mph - N/A   Mist
7:50 AM 35.6 °F 29.2 °F 35.6 °F 100% 29.92 in 0.6 mi SW 8.1 mph - N/A   Mist
8:00 AM 35 °F - 35 °F 99% 29.95 in 0 mi WSW 11.2 mph - - Fog Fog
8:20 AM 35.6 °F 28.6 °F 35.6 °F 100% 29.92 in 0.4 mi SSW 9.2 mph - N/A Fog Fog
8:50 AM 35.6 °F 28.6 °F 35.6 °F 100% 29.89 in 0.3 mi SSW 9.2 mph - N/A Fog Fog
9:20 AM 35.6 °F 28.6 °F 35.6 °F 100% 29.89 in 0.2 mi SSW 9.2 mph - N/A Fog Fog
9:50 AM 35.6 °F 28.0 °F 35.6 °F 100% 29.89 in 0.2 mi SW 10.4 mph - N/A Fog Fog
10:20 AM 37.4 °F 30.8 °F 37.4 °F 100% 29.89 in 0.2 mi SSW 9.2 mph - N/A Fog Fog
10:50 AM 37.4 °F 30.8 °F 37.4 °F 100% 29.86 in 0.2 mi SSW 9.2 mph - N/A Fog Fog
11:20 AM 39.2 °F 32.5 °F 39.2 °F 100% 29.86 in 0.2 mi SW 10.4 mph - N/A Fog Fog
11:50 AM 39.2 °F 32.5 °F 39.2 °F 100% 29.83 in 0.2 mi SW 10.4 mph - N/A Fog Fog
12:20 PM 39.2 °F 31.2 °F 39.2 °F 100% 29.83 in 0.2 mi SW 13.8 mph - N/A Fog Fog
12:50 PM 39.2 °F 31.6 °F 39.2 °F 100% 29.80 in 0.2 mi SSW 12.7 mph - N/A Fog Fog
1:20 PM 39.2 °F 31.2 °F 39.2 °F 100% 29.77 in 0.5 mi SW 13.8 mph - N/A Fog Light Drizzle
1:50 PM 39.2 °F 31.6 °F 39.2 °F 100% 29.77 in 0.9 mi SW 12.7 mph - N/A   Light Drizzle
2:20 PM 39.2 °F 32.0 °F 39.2 °F 100% 29.77 in 0.9 mi WSW 11.5 mph - N/A   Light Drizzle
2:50 PM 39.2 °F 32.0 °F 39.2 °F 100% 29.74 in 1.2 mi SW 11.5 mph - N/A   Light Drizzle
3:20 PM 41.0 °F 33.5 °F 41.0 °F 100% 29.71 in 6.2 mi SW 13.8 mph - N/A   Light Drizzle
3:50 PM 41.0 °F 33.9 °F 41.0 °F 100% 29.68 in 6.2 mi SW 12.7 mph - N/A   Mostly Cloudy
4:20 PM 41.0 °F 32.8 °F 41.0 °F 100% 29.68 in 6.2 mi SW 16.1 mph - N/A   Mostly Cloudy
4:50 PM 41.0 °F 33.1 °F 41.0 °F 100% 29.65 in 6.2 mi SW 15.0 mph - N/A   Mostly Cloudy
5:20 PM 41.0 °F 32.2 °F 39.2 °F 93% 29.62 in 6.2 mi SW 18.4 mph - N/A   Mostly Cloudy
5:50 PM 41.0 °F 32.2 °F 39.2 °F 93% 29.62 in 6.2 mi SW 18.4 mph - N/A   Mostly Cloudy
6:20 PM 39.2 °F 29.8 °F 37.4 °F 93% 29.59 in 6.2 mi SW 18.4 mph - N/A   Mostly Cloudy
6:50 PM 39.2 °F 30.2 °F 37.4 °F 93% 29.56 in 6.2 mi SW 17.3 mph - N/A   Mostly Cloudy
7:20 PM 39.2 °F 30.8 °F 37.4 °F 93% 29.53 in 6.2 mi SSW 15.0 mph - N/A   Mostly Cloudy
7:50 PM 39.2 °F 30.8 °F 37.4 °F 93% 29.53 in 6.2 mi SSW 15.0 mph - N/A   Partly Cloudy
8:00 PM 39 °F - 37 °F 91% 29.54 in 17 mi SW 17.9 mph - -   Clear
8:20 PM 39.2 °F 30.5 °F 35.6 °F 87% 29.47 in - SSW 16.1 mph - N/A   Clear
8:50 PM 39.2 °F 30.5 °F 35.6 °F 87% 29.44 in - SSW 16.1 mph - N/A   Clear
9:20 PM 41.0 °F 31.9 °F 33.8 °F 76% 29.42 in - SSW 19.6 mph - N/A   Clear
9:50 PM 41.0 °F 31.6 °F 33.8 °F 76% 29.39 in 6.2 mi SW 20.7 mph - N/A Rain Light Rain
10:20 PM 41.0 °F 31.9 °F 33.8 °F 76% 29.36 in - SW 19.6 mph 33.4 mph N/A   Clear
10:50 PM 42.8 °F 33.8 °F 33.8 °F 70% 29.33 in - SW 21.9 mph 34.5 mph N/A   Clear
11:20 PM 42.8 °F 33.1 °F 33.8 °F 70% 29.33 in - SW 25.3 mph - N/A   Clear
11:50 PM 42.8 °F 33.1 °F 33.8 °F 70% 29.30 in - SW 25.3 mph - N/A   Clear